Location: Greene
(44.1583°N, 70.1456°W)
Time: 22:22:35
(UTC-05:00)

Amateur Radio Satellites - All Passes

Search period start: 16 January 2018 21:52
Search period end: 17 January 2018 21:52
Location: Greene, 44.1583°N, 70.1456°W

Satellite Date Start Highest point End Downlink Frequencies (MHz)
Time Altitude Azimuth
ESTCUBE 1 16 Jan 22:08:29 22:13:00 70° 74° (ENE) 22:17:31 437.505/2401.250
YUBILEINY 16 Jan 22:14:59 22:22:54 39° 85° (E) 22:30:48 435.215
VELOX 1 16 Jan 22:30:58 22:33:55 18° 63° (ENE) 22:36:53 145.980
NO-84 16 Jan 22:37:45 22:38:55 12° 13° (NNE) 22:40:05 435.350 FM
POLYITAN 1 16 Jan 22:52:33 22:55:47 20° 93° (E) 22:59:00 437.675
TIGRISAT 16 Jan 22:55:25 22:58:37 19° 297° (WNW) 23:01:49 435.000
AO-85 16 Jan 22:57:03 22:59:55 15° 251° (WSW) 23:02:50 145.980
AIST 2D 16 Jan 22:57:28 23:00:57 83° 101° (ESE) 23:04:25 435.315
ISS 16 Jan 22:59:09 23:02:23 61° 333° (NNW) 23:05:38 437.550
SPROUT 16 Jan 23:03:17 23:07:27 63° 74° (ENE) 23:11:41 437.525
nSIGHT-1 16 Jan 23:05:26 23:08:27 41° 337° (NNW) 23:11:30 .
LO-87 16 Jan 23:07:40 23:10:02 17° 267° (W) 23:12:25 145.935 - 145.965
UNISAT 6 16 Jan 23:10:18 23:12:24 13° 300° (WNW) 23:14:29 437.425
NANOSAT C BR1 16 Jan 23:12:24 23:16:09 29° 96° (E) 23:19:51 145.865
PRISM 16 Jan 23:12:31 23:16:13 35° 290° (WNW) 23:19:56 437.425
QB50P2 16 Jan 23:21:08 23:25:17 45° 99° (E) 23:29:23 145.880/145.840
BUGSAT 1 16 Jan 23:44:53 23:46:56 13° 90° (E) 23:48:58 437.445
ESTCUBE 1 16 Jan 23:48:20 23:50:16 12° 271° (W) 23:52:12 437.505/2401.250
EO-79 16 Jan 23:53:43 23:58:02 87° 284° (WNW) 00:02:19 145.935-145.965
DUCHIFAT 1 16 Jan 23:58:33 00:02:51 80° 103° (ESE) 00:07:06 145.980
VELOX 1 17 Jan 00:05:44 00:09:59 49° 260° (W) 00:14:16 145.980
YUBILEINY 17 Jan 00:10:58 00:19:27 50° 286° (WNW) 00:27:59 435.215
NO-84 17 Jan 00:13:57 00:16:41 40° 33° (NNE) 00:19:32 435.350 FM
POLYITAN 1 17 Jan 00:27:41 00:31:41 38° 290° (WNW) 00:35:39 437.675
Gurwin Techsat 1B 17 Jan 00:31:13 00:35:12 21° 92° (E) 00:39:08 435.225
O/OREOS (USA 219) 17 Jan 00:32:14 00:36:27 40° 107° (ESE) 00:40:39 437.305
UKube-1 17 Jan 00:34:56 00:38:59 42° 70° (ENE) 00:43:03 .
DX 1 17 Jan 00:36:28 00:40:46 73° 74° (ENE) 00:45:06 434.975-435.025
ISS 17 Jan 00:36:37 00:39:19 23° 352° (N) 00:42:01 437.550
SPROUT 17 Jan 00:42:00 00:43:45 12° 271° (W) 00:45:32 437.525
nSIGHT-1 17 Jan 00:42:42 00:45:12 21° 357° (N) 00:47:42 .
BEESAT 17 Jan 00:47:44 00:49:36 12° 57° (ENE) 00:51:28 436.000
NANOSAT C BR1 17 Jan 00:48:09 00:51:46 27° 293° (WNW) 00:55:21 145.865
50 SAT 17 Jan 00:51:11 00:54:15 75° 258° (WSW) 00:57:22 437.505
QB50P2 17 Jan 00:57:46 01:00:43 18° 296° (WNW) 01:03:39 145.880/145.840
AO-91 17 Jan 01:14:15 01:18:28 81° 104° (ESE) 01:23:10 145.960
MOZHAYETS 4 17 Jan 01:17:12 01:21:21 34° 68° (ENE) 01:25:33
BUGSAT 1 17 Jan 01:18:27 01:22:38 59° 287° (WNW) 01:26:48 437.445
Oscar 19 17 Jan 01:21:44 01:26:57 78° 102° (ESE) 01:32:06 437.125/150
DUCHIFAT 1 17 Jan 01:36:30 01:37:51 11° 300° (WNW) 01:39:12 145.980
ITUPSAT 1 17 Jan 01:39:32 01:43:50 35° 68° (ENE) 01:48:11 437.325
AO-7 17 Jan 01:44:46 01:50:15 19° 89° (E) 01:55:41 .
NO-84 17 Jan 01:51:28 01:53:40 19° 228° (SW) 01:55:57 435.350 FM
Gurwin Techsat 1B 17 Jan 02:10:16 02:15:27 54° 289° (WNW) 02:20:36 435.225
UKube-1 17 Jan 02:12:09 02:15:11 19° 267° (W) 02:18:14 .
O/OREOS (USA 219) 17 Jan 02:12:21 02:16:00 24° 305° (NW) 02:19:40 437.305
ISS 17 Jan 02:13:41 02:16:30 25° 12° (NNE) 02:19:18 437.550
DX 1 17 Jan 02:16:13 02:17:27 11° 271° (W) 02:18:39 434.975-435.025
YUBILEINY 17 Jan 02:17:31 02:18:54 10° 311° (NW) 02:20:16 435.215
nSIGHT-1 17 Jan 02:19:12 02:22:03 29° 17° (NNE) 02:24:53 .
ITAMSAT 1 17 Jan 02:19:29 02:22:20 15° 90° (E) 02:25:10 435.822/435.867
BEESAT 17 Jan 02:21:52 02:26:38 90° 311° (NW) 02:31:26 436.000
CUBESAT XI-V 17 Jan 02:44:30 02:49:10 66° 74° (ENE) 02:53:50 437.345
AO-91 17 Jan 02:53:05 02:54:29 11° 297° (WNW) 02:55:55 145.960
MOZHAYETS 4 17 Jan 02:54:37 02:58:31 27° 266° (W) 03:02:28
Oscar 19 17 Jan 03:02:35 03:05:37 16° 301° (WNW) 03:08:39 437.125/150
ITUPSAT 1 17 Jan 03:17:38 03:21:41 27° 265° (W) 03:25:46 437.325
KKS-1 17 Jan 03:19:48 03:23:26 26° 66° (ENE) 03:27:05 437.445
AO-7 17 Jan 03:35:41 03:44:08 86° 109° (ESE) 03:52:30 .
STARS 17 Jan 03:49:11 03:52:26 21° 64° (ENE) 03:55:41 437.465
ISS 17 Jan 03:50:01 03:53:18 85° 31° (NNE) 03:56:35 437.550
nSIGHT-1 17 Jan 03:55:14 03:58:23 60° 216° (SW) 04:01:32 .
M-CUBED/EXP-1 PRIME 17 Jan 03:55:51 03:58:19 19° 99° (E) 04:00:43 437.505
ITAMSAT 1 17 Jan 03:57:08 04:02:20 74° 287° (WNW) 04:07:31 435.822/435.867
DOVE 4 17 Jan 04:12:50 04:16:56 45° 99° (E) 04:21:12 437.250
CUBESAT XI-V 17 Jan 04:24:29 04:26:57 14° 271° (W) 04:29:27 437.345
SO-50 17 Jan 04:47:46 04:49:13 11° 107° (ESE) 04:50:41 436.795
XW-2B 17 Jan 04:48:18 04:50:22 14° 91° (E) 04:52:27 145.730 - 145.750
KKS-1 17 Jan 04:55:51 04:59:51 33° 263° (W) 05:03:52 437.445
CUTE-I 17 Jan 04:59:09 05:02:56 19° 92° (E) 05:06:43 437.470
LilacSat-2 17 Jan 05:09:19 05:12:38 27° 96° (E) 05:15:54 437.200
XW-2C 17 Jan 05:17:15 05:20:40 31° 96° (E) 05:24:02 145.795 - 145.815
STARS 17 Jan 05:24:24 05:28:30 40° 262° (W) 05:32:38 437.465
ISS 17 Jan 05:27:39 05:29:21 13° 228° (SW) 05:31:02 437.550
AO-7 17 Jan 05:29:31 05:35:56 25° 309° (NW) 05:42:20 .
FALCONSAT 3 17 Jan 05:29:38 05:31:10 12° 161° (SSE) 05:32:43 435.103
M-CUBED/EXP-1 PRIME 17 Jan 05:29:49 05:32:46 26° 297° (WNW) 05:35:35 437.505
STRAND 1 17 Jan 05:31:53 05:36:28 35° 67° (ENE) 05:41:06 437.568
ITAMSAT 1 17 Jan 05:39:19 05:40:54 11° 305° (NW) 05:42:28 435.822/435.867
SEEDS 17 Jan 05:44:40 05:45:56 11° 89° (E) 05:47:12 437.485
CUTE 1.7 + AOD 2 17 Jan 05:46:48 05:49:58 20° 93° (E) 05:53:07 437.475
DOVE 4 17 Jan 05:51:27 05:54:21 18° 295° (WNW) 05:57:19 437.250
XW-2F 17 Jan 05:57:48 06:01:34 87° 283° (WNW) 06:05:17 145.980 - 146.000
RS-15 17 Jan 05:59:28 06:02:54 12° 92° (E) 06:06:19 29.354- 29.394
XW-2D 17 Jan 06:03:36 06:07:21 65° 286° (WNW) 06:11:04 145.860 - 145.880
KAITUO 1B 17 Jan 06:03:55 06:07:38 84° 102° (ESE) 06:11:19 145.475/437.950
FO-29 17 Jan 06:06:05 06:12:25 39° 67° (ENE) 06:18:05 435.910
HO-68 17 Jan 06:17:44 06:24:37 47° 100° (E) 06:31:27 435.675
XW-2B 17 Jan 06:21:10 06:24:45 42° 288° (WNW) 06:28:18 145.730 - 145.750
NUDT-PHONESAT 17 Jan 06:23:13 06:26:51 58° 286° (WNW) 06:30:26 437.300
SO-50 17 Jan 06:24:29 06:28:56 84° 300° (WNW) 06:33:30 436.795
CUTE-I 17 Jan 06:38:08 06:43:21 58° 289° (WNW) 06:48:34 437.470
LilacSat-2 17 Jan 06:43:47 06:46:46 22° 292° (WNW) 06:49:42 437.200
CUBEBUG 2 17 Jan 06:48:13 06:52:56 63° 101° (E) 06:57:39 437.445
XW-2C 17 Jan 06:51:52 06:54:38 19° 293° (WNW) 06:57:21 145.795 - 145.815
UNISAT 6 17 Jan 06:59:50 07:00:03 10° 57° (ENE) 07:00:15 437.425
UWE-3 17 Jan 07:02:55 07:07:30 50° 99° (E) 07:12:01 435.000/436.395/437.385
FALCONSAT 3 17 Jan 07:06:45 07:09:32 20° 176° (S) 07:12:19 435.103
STRAND 1 17 Jan 07:11:14 07:15:40 30° 265° (W) 07:20:09 437.568
AAUSAT CUBESAT 2 17 Jan 07:13:05 07:17:02 45° 98° (E) 07:20:57 437.432
SEEDS 17 Jan 07:17:54 07:22:03 66° 285° (WNW) 07:26:09 437.485
CUTE 1.7 + AOD 2 17 Jan 07:22:02 07:25:55 36° 289° (WNW) 07:29:46 437.475
ZACube-1 17 Jan 07:36:32 07:41:05 59° 100° (E) 07:45:33 437.345
AO-73 17 Jan 07:46:03 07:50:37 66° 101° (E) 07:55:05 145.935
FO-29 17 Jan 07:50:49 07:57:25 41° 262° (W) 08:03:21 435.910
XW-2A 17 Jan 07:51:20 07:54:42 65° 285° (WNW) 07:58:00 145.665 - 145.685
RS-15 17 Jan 08:00:40 08:12:31 57° 113° (ESE) 08:24:13 29.354- 29.394
HO-68 17 Jan 08:05:45 08:12:11 37° 298° (WNW) 08:18:36 435.675
SO-50 17 Jan 08:07:19 08:10:08 16° 326° (NW) 08:12:58 436.795
TIGRISAT 17 Jan 08:17:35 08:21:51 54° 72° (ENE) 08:26:15 435.000
YUBILEINY 17 Jan 08:23:14 08:29:29 21° 60° (ENE) 08:35:39 435.215
Oscar 11 17 Jan 08:24:17 08:28:39 79° 284° (WNW) 08:32:57 .
CUBEBUG 2 17 Jan 08:26:02 08:29:02 17° 298° (WNW) 08:32:02 437.445
PRISM 17 Jan 08:28:38 08:31:28 19° 65° (ENE) 08:34:18 437.425
Max Valier Satellite 17 Jan 08:30:35 08:32:35 14° 91° (E) 08:34:32 145.860
DELFI C3 17 Jan 08:31:03 08:34:09 22° 94° (E) 08:37:15 145.870
UNISAT 6 17 Jan 08:31:33 08:35:56 84° 73° (ENE) 08:40:28 437.425
UWE-3 17 Jan 08:40:13 08:43:33 20° 296° (WNW) 08:46:52 435.000/436.395/437.385
FALCONSAT 3 17 Jan 08:45:29 08:47:58 17° 192° (SSW) 08:50:27 435.103
AAUSAT CUBESAT 2 17 Jan 08:49:28 08:52:08 17° 296° (WNW) 08:54:46 437.432
EO-88 17 Jan 08:59:05 09:01:46 19° 94° (E) 09:04:25 145.990 - 145.960
O/OREOS (USA 219) 17 Jan 09:02:37 09:04:52 14° 49° (NE) 09:07:08 437.305
ZACube-1 17 Jan 09:14:00 09:16:52 17° 298° (WNW) 09:19:42 437.345
AO-73 17 Jan 09:23:42 09:26:17 15° 299° (WNW) 09:28:51 145.935
AIST 2D 17 Jan 09:32:38 09:35:51 34° 72° (ENE) 09:39:06 435.315
POLYITAN 1 17 Jan 09:46:39 09:49:40 19° 64° (ENE) 09:52:42 437.675
PCSat 17 Jan 09:53:10 09:58:13 42° 113° (ESE) 10:03:18 145.827
TIGRISAT 17 Jan 09:56:19 09:58:54 15° 270° (W) 10:01:32 435.000
ESTCUBE 1 17 Jan 10:01:06 10:03:11 13° 89° (E) 10:05:14 437.505/2401.250
PRISM 17 Jan 10:02:36 10:06:26 40° 261° (W) 10:10:18 437.425
Max Valier Satellite 17 Jan 10:03:04 10:06:36 41° 288° (WNW) 10:10:05 145.860
DELFI C3 17 Jan 10:05:29 10:08:53 29° 291° (WNW) 10:12:17 145.870
NANOSAT C BR1 17 Jan 10:05:47 10:09:17 26° 67° (ENE) 10:12:49 145.865
BEESAT 3 17 Jan 10:09:27 10:13:20 53° 120° (ESE) 10:17:13 437.485
RS-15 17 Jan 10:13:14 10:25:14 54° 317° (NW) 10:37:01 29.354- 29.394
QB50P2 17 Jan 10:14:49 10:18:46 40° 71° (ENE) 10:22:46 145.880/145.840
YUBILEINY 17 Jan 10:18:48 10:27:37 89° 79° (E) 10:36:19 435.215
LO-87 17 Jan 10:31:23 10:34:40 31° 97° (E) 10:37:56 145.935 - 145.965
EO-88 17 Jan 10:32:15 10:35:25 28° 290° (WNW) 10:38:33 145.990 - 145.960
BUGSAT 1 17 Jan 10:36:50 10:38:19 12° 60° (ENE) 10:39:48 437.445
O/OREOS (USA 219) 17 Jan 10:40:24 10:44:53 81° 249° (WSW) 10:49:22 437.305
EO-79 17 Jan 10:47:00 10:51:12 82° 75° (ENE) 10:55:28 145.935-145.965
BEESAT 2 17 Jan 10:47:18 10:50:59 35° 117° (ESE) 10:54:41 435.950
DUCHIFAT 1 17 Jan 10:51:11 10:55:21 69° 74° (ENE) 10:59:34 145.980
Oscar 19 17 Jan 11:02:48 11:06:22 19° 61° (ENE) 11:09:58 437.125/150
AIST 2D 17 Jan 11:07:01 11:09:08 15° 268° (W) 11:11:15 435.315
POLYITAN 1 17 Jan 11:21:08 11:25:08 42° 262° (W) 11:29:12 437.675
AO-85 17 Jan 11:33:01 11:35:21 15° 109° (ESE) 11:37:46 145.980
ESTCUBE 1 17 Jan 11:35:57 11:40:25 66° 287° (WNW) 11:44:51 437.505/2401.250
PCSat 17 Jan 11:36:49 11:41:42 33° 312° (NW) 11:46:37 145.827
NANOSAT C BR1 17 Jan 11:41:13 11:44:53 29° 264° (W) 11:48:37 145.865
BEESAT 3 17 Jan 11:48:10 11:51:08 20° 319° (NW) 11:54:07 437.485
QB50P2 17 Jan 11:51:44 11:54:43 19° 268° (W) 11:57:45 145.880/145.840
Gurwin Techsat 1B 17 Jan 11:53:27 11:58:20 39° 68° (ENE) 12:03:15 435.225
VELOX 1 17 Jan 11:54:12 11:57:54 26° 95° (E) 12:01:36 145.980
LO-87 17 Jan 12:05:18 12:07:50 18° 293° (WNW) 12:10:22 145.935 - 145.965
BUGSAT 1 17 Jan 12:09:02 12:13:04 71° 258° (WSW) 12:17:12 437.445
AO-91 17 Jan 12:13:47 12:17:08 74° 75° (ENE) 12:20:33 145.960
YUBILEINY 17 Jan 12:17:28 12:23:09 20° 283° (WNW) 12:28:48 435.215
SPROUT 17 Jan 12:22:45 12:27:04 83° 284° (WNW) 12:31:22 437.525
BEESAT 2 17 Jan 12:25:18 12:28:45 26° 315° (NW) 12:32:13 435.950
DX 1 17 Jan 12:25:33 12:26:36 11° 89° (E) 12:27:39 434.975-435.025
DUCHIFAT 1 17 Jan 12:30:18 12:31:28 11° 271° (W) 12:32:38 145.980
RS-15 17 Jan 12:31:10 12:41:17 29° 349° (N) 12:51:06 29.354- 29.394
Oscar 19 17 Jan 12:40:02 12:45:11 64° 258° (WSW) 12:50:23 437.125/150
AO-7 17 Jan 12:45:01 12:52:11 34° 55° (NE) 12:59:23 .
AO-85 17 Jan 13:11:18 13:15:13 54° 309° (NW) 13:19:26 145.980
SO-50 17 Jan 13:14:18 13:17:59 22° 40° (NE) 13:21:42 436.795
VELOX 1 17 Jan 13:30:28 13:34:20 31° 292° (WNW) 13:38:13 145.980
Gurwin Techsat 1B 17 Jan 13:33:46 13:38:21 29° 265° (W) 13:42:57 435.225
50 SAT 17 Jan 13:35:40 13:38:46 61° 102° (ESE) 13:41:50 437.505
ITAMSAT 1 17 Jan 13:38:19 13:42:38 28° 64° (ENE) 13:46:59 435.822/435.867
UKube-1 17 Jan 13:55:46 14:00:03 62° 102° (ESE) 14:04:19 .
DX 1 17 Jan 13:58:56 14:03:16 75° 286° (WNW) 14:07:35 434.975-435.025
BEESAT 17 Jan 14:21:07 14:24:40 20° 93° (E) 14:28:11 436.000
AO-7 17 Jan 14:36:11 14:44:27 65° 256° (WSW) 14:52:47 .
CUBESAT XI-V 17 Jan 14:40:57 14:43:26 14° 89° (E) 14:45:55 437.345
M-CUBED/EXP-1 PRIME 17 Jan 14:41:10 14:45:17 40° 66° (ENE) 14:49:11 437.505
MOZHAYETS 4 17 Jan 14:47:00 14:51:38 63° 101° (E) 14:56:12
RS-15 17 Jan 14:47:57 14:58:32 34° 24° (NNE) 15:08:39 29.354- 29.394
SO-50 17 Jan 14:54:11 14:58:50 64° 239° (WSW) 15:03:33 436.795
AO-85 17 Jan 14:55:23 14:56:42 11° 332° (NNW) 14:58:03 145.980
ITUPSAT 1 17 Jan 15:15:26 15:20:15 67° 102° (ESE) 15:25:02 437.325
ITAMSAT 1 17 Jan 15:17:04 15:21:55 41° 262° (W) 15:26:48 435.822/435.867
DOVE 4 17 Jan 15:19:42 15:23:57 54° 73° (ENE) 15:28:04 437.250
UKube-1 17 Jan 15:33:13 15:35:34 14° 299° (WNW) 15:37:54 .
LilacSat-2 17 Jan 15:52:55 15:55:39 19° 66° (ENE) 15:58:24 437.200
BEESAT 17 Jan 15:58:03 16:02:40 47° 290° (WNW) 16:07:15 436.000
XW-2C 17 Jan 16:00:04 16:02:57 20° 67° (ENE) 16:05:50 145.795 - 145.815
M-CUBED/EXP-1 PRIME 17 Jan 16:16:18 16:19:43 21° 260° (W) 16:23:00 437.505
CUBESAT XI-V 17 Jan 16:16:39 16:21:14 62° 287° (WNW) 16:25:46 437.345
CUTE-I 17 Jan 16:22:03 16:26:54 37° 67° (ENE) 16:31:46 437.470
MOZHAYETS 4 17 Jan 16:25:28 16:28:15 16° 299° (WNW) 16:31:01
AO-7 17 Jan 16:36:02 16:38:48 12° 275° (W) 16:41:36 .
SEEDS 17 Jan 16:38:30 16:39:29 11° 60° (ENE) 16:40:27 437.485
XW-2F 17 Jan 16:39:21 16:43:03 52° 74° (ENE) 16:46:47 145.980 - 146.000
CUTE 1.7 + AOD 2 17 Jan 16:41:02 16:44:02 19° 65° (ENE) 16:47:01 437.475
KKS-1 17 Jan 16:44:36 16:48:47 39° 98° (E) 16:52:57 437.445
KAITUO 1B 17 Jan 16:44:38 16:48:14 45° 73° (ENE) 16:51:52 145.475/437.950
XW-2D 17 Jan 16:45:28 16:49:17 70° 75° (ENE) 16:53:07 145.860 - 145.880
HO-68 17 Jan 16:47:56 16:54:31 42° 63° (ENE) 17:01:06 435.675
ITUPSAT 1 17 Jan 16:54:35 16:57:31 16° 300° (WNW) 17:00:29 437.325
PCSat 17 Jan 16:57:34 16:59:39 12° 30° (NNE) 17:01:45 145.827
DOVE 4 17 Jan 16:59:40 17:01:58 14° 269° (W) 17:04:13 437.250
RS-15 17 Jan 17:01:16 17:13:09 80° 53° (NE) 17:24:21 29.354- 29.394
NUDT-PHONESAT 17 Jan 17:02:44 17:06:27 72° 76° (ENE) 17:10:11 437.300
XW-2B 17 Jan 17:02:55 17:06:44 75° 258° (WSW) 17:10:35 145.730 - 145.750
NO-84 17 Jan 17:07:07 17:09:11 17° 131° (SE) 17:11:11 435.350 FM
STARS 17 Jan 17:11:53 17:15:48 30° 97° (E) 17:19:41 437.465
LilacSat-2 17 Jan 17:26:06 17:29:40 35° 263° (W) 17:33:15 437.200
XW-2C 17 Jan 17:33:29 17:36:56 31° 263° (W) 17:40:23 145.795 - 145.815
CUBEBUG 2 17 Jan 17:47:26 17:51:41 58° 73° (ENE) 17:56:06 437.445
Oscar 11 17 Jan 17:47:51 17:48:52 11° 59° (ENE) 17:49:51 .
UWE-3 17 Jan 18:00:57 18:05:09 46° 71° (ENE) 18:09:29 435.000/436.395/437.385
CUTE-I 17 Jan 18:02:19 18:06:59 31° 264° (W) 18:11:40 437.470
AAUSAT CUBESAT 2 17 Jan 18:04:14 18:08:01 35° 70° (ENE) 18:11:48 437.432
SEEDS 17 Jan 18:10:16 18:14:30 83° 258° (WSW) 18:18:45 437.485
CUTE 1.7 + AOD 2 17 Jan 18:15:27 18:19:32 43° 262° (W) 18:23:38 437.475
XW-2F 17 Jan 18:15:55 18:17:27 12° 270° (W) 18:18:59 145.980 - 146.000
KAITUO 1B 17 Jan 18:20:32 18:22:26 13° 269° (W) 18:24:21 145.475/437.950
KKS-1 17 Jan 18:21:40 18:25:06 22° 295° (WNW) 18:28:32 437.445
XW-2A 17 Jan 18:23:08 18:26:24 46° 73° (ENE) 18:29:43 145.665 - 145.685
BEESAT 3 17 Jan 18:24:30 18:28:20 49° 51° (NE) 18:32:06 437.485
ZACube-1 17 Jan 18:33:12 18:37:30 53° 73° (ENE) 18:41:55 437.345
HO-68 17 Jan 18:35:30 18:42:12 42° 262° (W) 18:48:57 435.675
PCSat 17 Jan 18:39:10 18:44:26 48° 53° (NE) 18:49:40 145.827
AO-73 17 Jan 18:42:20 18:46:40 58° 73° (ENE) 18:51:08 145.935
NO-84 17 Jan 18:43:17 18:46:08 43° 327° (NNW) 18:48:53 435.350 FM
STARS 17 Jan 18:48:18 18:52:03 28° 293° (WNW) 18:55:47 437.465
FO-29 17 Jan 18:59:05 19:03:06 22° 92° (E) 19:07:05 435.910
BEESAT 2 17 Jan 19:03:06 19:06:51 36° 48° (NE) 19:10:32 435.950
RS-15 17 Jan 19:14:53 19:24:18 31° 257° (WSW) 19:33:22 29.354- 29.394
DELFI C3 17 Jan 19:18:08 19:20:36 16° 65° (ENE) 19:23:06 145.870
STRAND 1 17 Jan 19:19:07 19:24:18 82° 104° (ESE) 19:29:26 437.568
Oscar 11 17 Jan 19:19:56 19:24:18 88° 260° (W) 19:28:41 .
CUBEBUG 2 17 Jan 19:26:25 19:28:43 14° 271° (W) 19:31:04 437.445
UWE-3 17 Jan 19:38:50 19:41:52 18° 269° (W) 19:44:57 435.000/436.395/437.385
EO-88 17 Jan 19:39:17 19:40:37 12° 63° (ENE) 19:41:57 145.990 - 145.960
AAUSAT CUBESAT 2 17 Jan 19:40:28 19:43:33 20° 267° (W) 19:46:40 437.432
XW-2A 17 Jan 19:58:27 19:59:20 11° 270° (W) 20:00:14 145.665 - 145.685
AO-85 17 Jan 20:00:04 20:04:22 30° 45° (NE) 20:08:53 145.980
BEESAT 3 17 Jan 20:03:03 20:05:28 16° 249° (WSW) 20:07:50 437.485
TIGRISAT 17 Jan 20:09:39 20:11:03 11° 88° (E) 20:12:27 435.000
ZACube-1 17 Jan 20:11:23 20:14:07 16° 270° (W) 20:16:52 437.345
AO-73 17 Jan 20:20:51 20:23:17 15° 271° (W) 20:25:47 145.935
UNISAT 6 17 Jan 20:22:28 20:25:34 17° 91° (E) 20:28:38 437.425
NO-84 17 Jan 20:22:38 20:23:52 12° 347° (NNW) 20:25:07 435.350 FM
PCSat 17 Jan 20:23:03 20:27:34 27° 251° (WSW) 20:32:03 145.827
ISS 17 Jan 20:33:13 20:34:00 11° 130° (SE) 20:34:47 437.550
nSIGHT-1 17 Jan 20:33:51 20:35:48 15° 134° (SE) 20:37:47 .
BEESAT 2 17 Jan 20:41:09 20:44:22 24° 246° (WSW) 20:47:33 435.950
Max Valier Satellite 17 Jan 20:42:20 20:46:04 82° 257° (WSW) 20:49:51 145.860
FO-29 17 Jan 20:43:31 20:48:33 45° 291° (WNW) 20:53:27 435.910
DELFI C3 17 Jan 20:51:17 20:55:00 42° 261° (W) 20:58:45 145.870
STRAND 1 17 Jan 20:59:59 21:02:48 15° 302° (WNW) 21:05:36 437.568
ESTCUBE 1 17 Jan 21:01:55 21:04:39 16° 62° (ENE) 21:07:21 437.505/2401.250
LO-87 17 Jan 21:09:16 21:11:36 17° 66° (ENE) 21:13:56 145.935 - 145.965
EO-88 17 Jan 21:10:11 21:13:47 55° 260° (W) 21:17:24 145.990 - 145.960
YUBILEINY 17 Jan 21:27:55 21:34:02 22° 78° (ENE) 21:40:09 435.215
AO-85 17 Jan 21:40:13 21:44:58 47° 242° (WSW) 21:49:59 145.980
PRISM 17 Jan 21:42:20 21:45:33 22° 95° (E) 21:48:46 437.425
